AB0DE-15 Weather Reports


time (UTC)temp
C
wind
direction
speed
KPH
gust
KPH
rain 1hr
cm
rain 24hr
cm
rain mn
cm
humidity
%
barometer
mb
20260906153027 23 138 0.0 8.0 0.00 0.00 0.00 82 1020.1
20260906152512 23 20 1.6 6.4 0.00 0.00 0.00 82 1020.1
20260906152013 23 133 0.0 11.3 0.00 0.00 0.00 83 1020.1
20260906151505 22 25 1.6 11.3 0.00 0.00 0.00 83 1020.1
20260906151004 22 12 0.0 6.4 0.00 0.00 0.00 84 1020.1
20260906150504 22 254 0.0 8.0 0.00 0.00 0.00 86 1020.1
20260906150023 22 208 1.6 14.5 0.00 0.00 0.00 85 1020.1
20260906145506 22 290 1.6 16.1 0.00 0.00 0.00 85 1020.1
20260906145004 22 172 1.6 16.1 0.00 0.00 0.00 86 1020.1
20260906144521 22 116 0.0 6.4 0.00 0.00 0.00 87 1020.1
20260906144007 21 146 0.0 6.4 0.00 0.00 0.00 88 1020.0
20260906143510 21 153 0.0 8.0 0.00 0.00 0.00 88 1019.9
20260906143032 21 245 3.2 8.0 0.00 0.00 0.00 88 1019.9
20260906142511 21 73 1.6 9.7 0.00 0.00 0.00 89 1019.8
20260906142015 21 110 0.0 9.7 0.00 0.00 0.00 90 1019.9
20260906141539 21 238 1.6 14.5 0.00 0.00 0.00 90 1019.9
20260906141011 20 31 1.6 14.5 0.00 0.00 0.00 90 1020.0
20260906140515 20 5 3.2 9.7 0.00 0.00 0.00 90 1020.0
20260906140007 20 57 0.0 8.0 0.00 0.00 0.00 91 1019.9
20260906135506 20 274 0.0 11.3 0.00 0.00 0.00 91 1019.9
20260906135004 20 176 3.2 11.3 0.00 0.00 0.00 91 1020.0
20260906134511 20 360 0.0 8.0 0.00 0.00 0.00 92 1020.0
20260906134007 20 120 0.0 3.2 0.00 0.00 0.00 92 1020.0
20260906133505 20 293 0.0 4.8 0.00 0.00 0.00 93 1020.0
20260906133016 20 18 0.0 4.8 0.00 0.00 0.00 93 1019.9
20260906132510 20 25 0.0 8.0 0.00 0.00 0.00 93 1019.9
20260906132010 20 215 1.6 8.0 0.00 0.00 0.00 93 1019.9
20260906131538 20 269 1.6 4.8 0.00 0.00 0.00 94 1019.9
20260906131015 20 8 0.0 3.2 0.00 0.00 0.00 94 1019.8
20260906130511 20 250 0.0 1.6 0.00 0.00 0.00 94 1019.8
20260906130034 20 309 0.0 1.6 0.00 0.00 0.00 94 1019.7
20260906125515 20 183 0.0 1.6 0.00 0.00 0.00 94 1019.8
20260906125014 20 6 0.0 1.6 0.00 0.00 0.00 94 1019.8
20260906124512 20 95 0.0 3.2 0.00 0.00 0.00 95 1019.6
20260906124004 20 152 0.0 3.2 0.00 0.00 0.00 94 1019.6
20260906123504 20 154 0.0 4.8 0.00 0.00 0.00 95 1019.6
20260906123018 20 6 0.0 4.8 0.00 0.00 0.00 95 1019.5
20260906122506 20 22 0.0 3.2 0.00 0.00 0.00 95 1019.5
20260906122009 20 27 0.0 3.2 0.00 0.00 0.00 95 1019.4
20260906121517 20 140 0.0 4.8 0.00 0.00 0.00 95 1019.4
20260906121010 19 166 0.0 4.8 0.00 0.00 0.00 95 1019.4
20260906120510 19 15 0.0 4.8 0.00 0.00 0.00 95 1019.4
20260906120024 19 238 0.0 1.6 0.00 0.00 0.00 95 1019.4
20260906115513 19 71 0.0 3.2 0.00 0.00 0.00 95 1019.4
20260906115013 19 65 0.0 3.2 0.00 0.00 0.00 95 1019.3
20260906114530 19 23 0.0 4.8 0.00 0.00 0.00 95 1019.2
20260906114015 19 146 0.0 4.8 0.00 0.00 0.00 95 1019.2
20260906113515 19 200 0.0 3.2 0.00 0.00 0.00 95 1019.2
20260906113020 19 44 0.0 8.0 0.00 0.00 0.00 95 1019.2
20260906112505 19 201 1.6 8.0 0.00 0.00 0.00 95 1019.3
20260906112005 19 194 1.6 6.4 0.00 0.00 0.00 95 1019.3
20260906111514 19 200 0.0 6.4 0.00 0.00 0.00 95 1019.2
20260906111007 19 37 0.0 6.4 0.00 0.00 0.00 95 1019.2
20260906110509 19 267 0.0 8.0 0.00 0.00 0.00 95 1019.2
20260906110019 19 188 0.0 8.0 0.00 0.00 0.00 96 1019.2
20260906105510 19 53 0.0 0.0 0.00 0.00 0.00 96 1019.0
20260906105014 19 156 0.0 0.0 0.00 0.00 0.00 96 1018.9
20260906104534 19 348 0.0 0.0 0.00 0.00 0.00 96 1018.9
20260906104014 19 29 0.0 0.0 0.00 0.00 0.00 96 1018.7
20260906103516 19 332 0.0 0.0 0.00 0.00 0.00 96 1018.4
20260906103032 19 335 0.0 0.0 0.00 0.00 0.00 95 1018.4
20260906102513 19 58 0.0 1.6 0.00 0.00 0.00 95 1018.3
20260906102018 19 3 0.0 1.6 0.00 0.00 0.00 95 1018.3
20260906101534 19 32 0.0 1.6 0.00 0.00 0.00 95 1018.2
20260906101007 19 347 0.0 1.6 0.00 0.00 0.00 95 1018.3
20260906100505 19 136 0.0 1.6 0.00 0.00 0.00 95 1018.3
20260906100019 20 332 0.0 0.0 0.00 0.00 0.00 95 1018.3
20260906095510 20 311 0.0 0.0 0.00 0.00 0.00 95 1018.2
20260906095008 20 332 0.0 1.6 0.00 0.00 0.00 95 1018.1
20260906094536 20 43 0.0 1.6 0.00 0.00 0.00 95 1018.1
20260906094009 20 92 0.0 1.6 0.00 0.00 0.00 95 1018.1
20260906093518 20 169 0.0 1.6 0.00 0.00 0.00 94 1018.1
20260906093037 20 173 0.0 3.2 0.00 0.00 0.00 94 1018.0
20260906092513 20 53 0.0 3.2 0.00 0.00 0.00 94 1017.9
20260906092015 20 346 0.0 4.8 0.00 0.00 0.00 94 1017.8
20260906091535 20 208 0.0 4.8 0.00 0.00 0.00 94 1017.7
20260906091019 20 29 0.0 3.2 0.00 0.00 0.00 94 1017.7
20260906090518 20 75 0.0 3.2 0.00 0.00 0.00 94 1017.7
20260906090034 20 35 0.0 3.2 0.00 0.00 0.00 94 1017.6
20260906085508 20 77 0.0 3.2 0.00 0.00 0.00 94 1017.6
20260906085013 20 153 0.0 4.8 0.00 0.00 0.00 93 1017.5
20260906084538 20 268 0.0 4.8 0.00 0.00 0.00 93 1017.6
20260906084011 20 100 0.0 1.6 0.00 0.00 0.00 93 1017.7
20260906083509 20 67 0.0 1.6 0.00 0.00 0.00 93 1017.7
20260906083035 20 141 0.0 4.8 0.00 0.00 0.00 92 1017.5
20260906082511 20 96 0.0 4.8 0.00 0.00 0.00 92 1017.6
20260906082012 20 24 0.0 3.2 0.00 0.00 0.00 92 1017.8
20260906081531 20 134 0.0 3.2 0.00 0.00 0.00 92 1017.9
20260906081016 20 155 0.0 1.6 0.00 0.00 0.00 92 1018.0
20260906080514 20 101 0.0 1.6 0.00 0.00 0.00 92 1018.0
20260906080035 20 221 0.0 3.2 0.00 0.00 0.00 92 1018.0
20260906075522 20 126 0.0 3.2 0.00 0.00 0.00 92 1018.1
20260906075016 20 72 0.0 3.2 0.00 0.00 0.00 92 1018.0
20260906074534 20 248 0.0 3.2 0.00 0.00 0.00 92 1018.0
20260906074011 20 302 0.0 3.2 0.00 0.00 0.00 92 1018.0
20260906073507 20 315 0.0 3.2 0.00 0.00 0.00 92 1018.0
20260906073023 20 29 0.0 1.6 0.00 0.00 0.00 93 1018.0
20260906072512 20 8 0.0 3.2 0.00 0.00 0.00 93 1017.9
20260906072011 20 37 0.0 3.2 0.00 0.00 0.00 93 1018.0
20260906071531 20 133 0.0 3.2 0.00 0.00 0.00 93 1018.1
20260906071003 20 206 0.0 1.6 0.00 0.00 0.00 94 1018.1
20260906070504 20 82 0.0 1.6 0.00 0.00 0.00 94 1018.0
20260906070010 20 152 0.0 1.6 0.00 0.00 0.00 94 1018.1
20260906065506 20 42 0.0 0.0 0.00 0.00 0.00 94 1018.1
20260906065004 20 43 0.0 0.0 0.00 0.00 0.00 94 1018.1
20260906064514 20 43 0.0 0.0 0.00 0.00 0.00 94 1018.1
20260906064003 20 42 0.0 0.0 0.00 0.00 0.00 94 1018.2
20260906063503 20 43 0.0 0.0 0.00 0.00 0.00 94 1018.2
20260906063011 20 43 0.0 0.0 0.00 0.00 0.00 94 1018.3
20260906062502 20 43 0.0 0.0 0.00 0.00 0.00 94 1018.4
20260906062004 20 44 0.0 0.0 0.00 0.00 0.00 94 1018.4
20260906061516 20 113 0.0 0.0 0.00 0.00 0.00 93 1018.4
20260906061004 20 120 0.0 0.0 0.00 0.00 0.00 93 1018.4
20260906060506 20 20 0.0 0.0 0.00 0.00 0.00 93 1018.4
20260906060008 20 20 0.0 0.0 0.00 0.00 0.00 93 1018.4
20260906055503 20 20 0.0 0.0 0.00 0.00 0.00 93 1018.5
20260906055003 20 10 0.0 0.0 0.00 0.00 0.00 93 1018.6
20260906054507 20 340 0.0 0.0 0.00 0.00 0.00 93 1018.6
20260906054003 20 314 0.0 0.0 0.00 0.00 0.00 93 1018.5
20260906053502 20 314 0.0 0.0 0.00 0.00 0.00 92 1018.6
20260906053011 20 313 0.0 0.0 0.00 0.00 0.00 92 1018.6
20260906052504 20 314 0.0 0.0 0.00 0.00 0.00 92 1018.5
20260906052004 21 313 0.0 0.0 0.00 0.00 0.00 92 1018.6
20260906051513 21 314 0.0 0.0 0.00 0.00 0.00 91 1018.6
20260906051004 21 313 0.0 0.0 0.00 0.00 0.00 91 1018.5
20260906050508 21 311 0.0 0.0 0.00 0.00 0.00 91 1018.4
20260906050015 21 310 0.0 0.0 0.00 0.00 0.00 91 1018.5
20260906045504 21 311 0.0 0.0 0.00 0.00 0.00 91 1018.4
20260906045003 21 311 0.0 0.0 0.00 0.00 0.00 91 1018.3
20260906044507 21 310 0.0 0.0 0.00 0.00 0.00 91 1018.3
20260906044003 21 266 0.0 0.0 0.00 0.00 0.00 91 1018.3
20260906043504 21 266 0.0 0.0 0.00 0.00 0.00 91 1018.3
20260906043017 21 266 0.0 0.0 0.00 0.00 0.00 91 1018.4
20260906042507 21 26 0.0 0.0 0.00 0.00 0.00 91 1018.4
20260906042007 21 26 0.0 0.0 0.00 0.00 0.00 91 1018.3
20260906041517 21 8 0.0 0.0 0.00 0.00 0.00 91 1018.3
20260906041008 21 25 0.0 0.0 0.00 0.00 0.00 91 1018.4
20260906040506 21 25 0.0 0.0 0.00 0.00 0.00 91 1018.4
20260906040022 21 25 0.0 0.0 0.00 0.00 0.00 91 1018.4
20260906035508 21 25 0.0 0.0 0.00 0.00 0.00 91 1018.4
20260906035008 21 26 0.0 0.0 0.00 0.00 0.00 91 1018.4
20260906034532 21 26 0.0 0.0 0.00 0.00 0.00 91 1018.4
20260906034007 22 25 0.0 0.0 0.00 0.00 0.00 91 1018.3
20260906033503 22 25 0.0 0.0 0.00 0.00 0.00 90 1018.5
20260906033021 22 25 0.0 0.0 0.00 0.00 0.00 91 1018.5
20260906032504 22 29 0.0 0.0 0.00 0.00 0.00 91 1018.4
20260906032005 22 24 0.0 0.0 0.00 0.00 0.00 91 1018.4
20260906031511 22 24 0.0 0.0 0.00 0.00 0.00 91 1018.2
20260906031004 22 24 0.0 0.0 0.00 0.00 0.00 91 1018.2
20260906030508 22 25 0.0 0.0 0.00 0.00 0.00 91 1018.1
20260906030017 22 25 0.0 0.0 0.00 0.00 0.00 91 1018.1
20260906025506 22 24 0.0 0.0 0.00 0.00 0.00 91 1018.1
20260906025006 22 25 0.0 0.0 0.00 0.00 0.00 91 1018.1
20260906024519 22 24 0.0 0.0 0.00 0.00 0.00 91 1018.0
20260906024007 22 24 0.0 0.0 0.00 0.00 0.00 91 1018.0
20260906023510 22 24 0.0 0.0 0.00 0.00 0.00 90 1017.9
20260906023016 22 24 0.0 0.0 0.00 0.00 0.00 91 1017.8
20260906022507 22 24 0.0 0.0 0.00 0.00 0.00 90 1017.7
20260906022004 22 25 0.0 0.0 0.00 0.00 0.00 90 1017.6
20260906021512 22 24 0.0 0.0 0.00 0.00 0.00 90 1017.5
20260906021005 22 24 0.0 0.0 0.00 0.00 0.00 90 1017.3
20260906020506 22 24 0.0 0.0 0.00 0.00 0.00 90 1017.2
20260906020018 22 24 0.0 0.0 0.00 0.00 0.00 90 1017.2
20260906015508 22 24 0.0 0.0 0.00 0.00 0.00 90 1017.1
20260906015010 22 24 0.0 0.0 0.00 0.00 0.00 90 1017.1
20260906014538 22 24 0.0 0.0 0.00 0.00 0.00 90 1017.0
20260906014013 22 25 0.0 0.0 0.00 0.00 0.00 90 1017.0
20260906013508 22 25 0.0 0.0 0.00 0.00 0.00 90 1017.0
20260906013021 22 24 0.0 0.0 0.00 0.00 0.00 89 1016.9
20260906012510 22 24 0.0 0.0 0.00 0.00 0.00 89 1016.8
20260906012008 22 24 0.0 0.0 0.00 0.00 0.00 89 1016.6
20260906011535 22 25 0.0 0.0 0.00 0.00 0.00 89 1016.6
20260906011007 22 25 0.0 0.0 0.00 0.00 0.00 88 1016.5
20260906010505 22 25 0.0 0.0 0.00 0.00 0.00 88 1016.5
20260906010012 23 37 0.0 0.0 0.00 0.00 0.00 88 1016.4
20260906005505 23 37 0.0 0.0 0.00 0.00 0.00 87 1016.4
20260906005005 23 37 0.0 1.6 0.00 0.00 0.00 87 1016.5
20260906004532 23 37 0.0 1.6 0.00 0.00 0.00 87 1016.3
20260906004010 23 37 0.0 0.0 0.00 0.00 0.00 86 1016.3
20260906003510 23 257 0.0 0.0 0.00 0.00 0.00 86 1016.2
20260906003034 23 257 0.0 0.0 0.00 0.00 0.00 85 1016.1
20260906002507 23 6 0.0 0.0 0.00 0.00 0.00 84 1016.2
20260906002012 24 6 0.0 0.0 0.00 0.00 0.00 83 1016.3
20260906001531 24 6 0.0 0.0 0.00 0.00 0.00 82 1016.3
20260906001011 25 6 0.0 0.0 0.00 0.00 0.00 81 1016.3
20260906000515 25 6 0.0 0.0 0.00 0.00 0.00 81 1016.3
20260906000026 25 45 0.0 1.6 0.00 0.00 0.00 79 1016.5
20260905235510 25 39 0.0 1.6 0.00 0.00 0.00 79 1016.4
20260905235007 26 246 0.0 1.6 0.00 0.00 0.00 77 1016.3
20260905234516 26 49 0.0 3.2 0.00 0.00 0.00 76 1016.3
20260905234009 26 84 0.0 3.2 0.00 0.00 0.00 76 1016.3
20260905233508 26 245 0.0 3.2 0.00 0.00 0.00 76 1016.2
20260905233021 26 100 0.0 3.2 0.00 0.00 0.00 76 1016.2
20260905232508 26 37 0.0 1.6 0.00 0.00 0.00 75 1016.2
20260905232013 26 56 0.0 1.6 0.00 0.00 0.00 76 1016.2
20260905231524 26 294 0.0 3.2 0.00 0.00 0.00 76 1016.1
20260905231010 26 70 0.0 8.0 0.00 0.00 0.00 77 1016.1
20260905230509 26 84 1.6 8.0 0.00 0.00 0.00 77 1016.1
20260905230027 25 358 0.0 11.3 0.00 0.00 0.00 79 1016.0
20260905225509 25 138 0.0 11.3 0.00 0.00 0.00 79 1015.9
20260905225013 25 75 1.6 6.4 0.00 0.00 0.00 79 1015.9
20260905224534 25 125 0.0 6.4 0.00 0.00 0.00 80 1015.7
20260905224014 25 96 0.0 6.4 0.00 0.00 0.00 80 1015.7
20260905223507 25 307 1.6 4.8 0.00 0.00 0.00 80 1015.7
20260905223024 25 27 1.6 4.8 0.00 0.00 0.00 80 1015.8
20260905222507 25 311 0.0 6.4 0.00 0.00 0.00 80 1015.8
20260905222008 25 125 1.6 8.0 0.00 0.00 0.00 80 1015.7
20260905221524 25 233 3.2 8.0 0.00 0.00 0.00 79 1015.7
20260905221012 25 225 0.0 6.4 0.00 0.00 0.00 80 1015.7
20260905220513 25 110 1.6 6.4 0.00 0.00 0.00 79 1015.7
20260905220031 25 133 0.0 4.8 0.00 0.00 0.00 79 1015.7
20260905215513 25 153 0.0 8.0 0.00 0.00 0.00 80 1015.7
20260905215005 25 39 0.0 8.0 0.00 0.00 0.00 80 1015.9
20260905214512 25 141 0.0 12.9 0.00 0.00 0.00 81 1015.8
20260905214003 25 142 1.6 12.9 0.00 0.00 0.00 81 1015.7
20260905213507 25 238 0.0 4.8 0.00 0.00 0.00 81 1015.8
20260905213030 25 113 0.0 4.8 0.00 0.00 0.00 81 1016.0
20260905212508 25 33 0.0 4.8 0.00 0.00 0.00 81 1016.1
20260905212008 25 53 0.0 6.4 0.00 0.00 0.00 81 1016.1
20260905211517 25 166 0.0 6.4 0.00 0.00 0.00 80 1016.1
20260905211013 26 232 0.0 4.8 0.00 0.00 0.00 79 1016.0
20260905210511 26 277 0.0 4.8 0.00 0.00 0.00 80 1016.0
20260905210024 26 77 0.0 6.4 0.00 0.00 0.00 80 1016.1
20260905205517 26 40 0.0 6.4 0.00 0.00 0.00 79 1016.2
20260905205014 26 118 0.0 4.8 0.00 0.00 0.00 78 1016.3
20260905204535 26 153 0.0 6.4 0.00 0.00 0.00 78 1016.3
20260905204014 26 128 0.0 14.5 0.00 0.00 0.00 78 1016.5
20260905203512 26 92 0.0 14.5 0.00 0.00 0.00 77 1016.5
20260905203012 27 341 0.0 3.2 0.00 0.00 0.00 78 1016.6
20260905202504 27 78 0.0 6.4 0.00 0.00 0.00 77 1016.6
20260905202005 27 280 0.0 6.4 0.00 0.00 0.00 78 1016.6
20260905201516 27 347 1.6 4.8 0.00 0.00 0.00 76 1016.7
20260905201007 27 51 0.0 3.2 0.00 0.00 0.00 76 1016.8
20260905200508 27 37 0.0 3.2 0.00 0.00 0.00 76 1017.0
20260905200023 27 33 0.0 3.2 0.00 0.00 0.00 76 1017.1
20260905195509 27 328 0.0 1.6 0.00 0.00 0.00 75 1017.1
20260905195014 26 348 0.0 1.6 0.00 0.00 0.00 77 1017.1
20260905194530 26 22 0.0 3.2 0.00 0.00 0.00 77 1017.2
20260905194013 26 58 0.0 3.2 0.00 0.00 0.00 76 1017.3
20260905193516 26 114 0.0 1.6 0.00 0.00 0.00 76 1017.3
20260905193034 26 203 0.0 1.6 0.00 0.00 0.00 77 1017.3
20260905192518 26 224 0.0 3.2 0.00 0.00 0.00 77 1017.3
20260905192014 26 318 0.0 3.2 0.00 0.00 0.00 77 1017.3
20260905191514 26 263 0.0 3.2 0.00 0.00 0.00 77 1017.4
20260905191005 27 252 0.0 3.2 0.00 0.00 0.00 75 1017.4
20260905190505 27 262 1.6 4.8 0.00 0.00 0.00 74 1017.4
20260905190033 27 110 1.6 8.0 0.00 0.00 0.00 75 1017.4
20260905185509 27 68 1.6 8.0 0.00 0.00 0.00 76 1017.3
20260905185009 27 27 0.0 6.4 0.00 0.00 0.00 77 1017.4
20260905184528 26 304 3.2 6.4 0.00 0.00 0.00 77 1017.4
20260905184010 26 189 1.6 4.8 0.00 0.00 0.00 78 1017.4
20260905183510 26 135 0.0 6.4 0.00 0.00 0.00 79 1017.4
20260905183035 26 117 0.0 6.4 0.00 0.00 0.00 81 1017.5
20260905182514 25 236 0.0 1.6 0.00 0.00 0.00 81 1017.7
20260905182016 25 73 0.0 1.6 0.00 0.00 0.00 83 1017.8
20260905181536 25 148 0.0 1.6 0.00 0.00 0.00 83 1017.8
20260905181014 25 294 0.0 1.6 0.00 0.00 0.00 82 1017.9
20260905180515 25 285 0.0 1.6 0.00 0.00 0.00 84 1018.0
20260905180015 24 143 0.0 4.8 0.00 0.00 0.00 84 1018.1
20260905175506 24 15 0.0 4.8 0.00 0.00 0.00 84 1018.1
20260905175006 24 91 0.0 3.2 0.00 0.00 0.00 83 1018.1
20260905174526 25 245 0.0 3.2 0.00 0.00 0.00 82 1018.3
20260905174013 25 41 0.0 1.6 0.00 0.00 0.00 82 1018.2
20260905173512 25 37 0.0 1.6 0.00 0.00 0.00 84 1018.2
20260905173023 24 92 0.0 1.6 0.00 0.00 0.00 85 1018.3
20260905172511 24 76 0.0 1.6 0.00 0.00 0.00 86 1018.3
20260905172017 24 49 0.0 1.6 0.00 0.00 0.00 87 1018.4
20260905171532 23 50 0.0 4.8 0.00 0.00 0.00 86 1018.5
20260905171014 23 132 0.0 4.8 0.00 0.00 0.00 86 1018.5
20260905170514 23 82 0.0 4.8 0.00 0.00 0.00 85 1018.3
20260905170029 24 338 0.0 3.2 0.00 0.00 0.00 86 1018.4
20260905165520 24 72 0.0 3.2 0.00 0.00 0.00 85 1018.4
20260905165013 24 126 0.0 6.4 0.00 0.00 0.00 86 1018.3
20260905164512 24 84 0.0 6.4 0.00 0.00 0.00 86 1018.1
20260905164008 24 198 0.0 3.2 0.00 0.00 0.00 87 1018.0
20260905163507 23 44 0.0 4.8 0.00 0.00 0.00 87 1017.9
20260905163021 23 53 0.0 4.8 0.00 0.00 0.00 87 1017.9
20260905162513 23 123 0.0 4.8 0.00 0.00 0.00 87 1018.0
20260905162012 23 122 0.0 3.2 0.00 0.00 0.00 88 1018.0
20260905161528 23 249 0.0 3.2 0.00 0.00 0.00 89 1018.0
20260905161012 23 149 0.0 3.2 0.00 0.00 0.00 88 1018.0
20260905160513 23 246 0.0 4.8 0.00 0.00 0.00 88 1018.0
20260905160042 23 340 0.0 4.8 0.00 0.00 0.00 88 1018.1
20260905155517 23 180 0.0 4.8 0.00 0.00 0.00 88 1018.0
20260905155015 23 47 0.0 4.8 0.00 0.00 0.00 88 1017.9
20260905154534 23 355 1.6 8.0 0.00 0.00 0.00 88 1017.9
20260905154016 23 115 0.0 8.0 0.00 0.00 0.00 89 1017.9
20260905153515 23 78 0.0 14.5 0.00 0.00 0.00 90 1017.8